EW7639 Weather Reports


time (UTC)temp
C
wind
direction
speed
KPH
gust
KPH
rain 1hr
cm
rain 24hr
cm
rain mn
cm
humidity
%
barometer
mb
20260503001511 9 190 0.0 0.0 0.00 0.00 0.00 8 1009.5
20260503000015 9 190 0.0 0.0 0.00 0.00 0.00 9 1009.4
20260502234544 9 190 0.0 0.0 0.00 0.00 0.00 13 1009.6
20260502233041 9 190 0.0 0.0 0.00 0.00 0.00 14 1009.6
20260502231519 10 190 0.0 0.0 0.00 0.00 0.00 15 1009.5
20260502230013 10 190 0.0 0.0 0.00 0.00 0.00 16 1009.7
20260502224610 10 190 0.0 0.0 0.00 0.00 0.00 20 1009.6
20260502223048 10 190 0.0 0.0 0.00 0.00 0.00 20 1009.6
20260502221544 10 190 0.0 0.0 0.00 0.00 0.00 24 1009.6
20260502220024 10 190 0.0 0.0 0.00 0.00 0.00 27 1009.6
20260502214519 10 188 0.0 0.0 0.00 0.00 0.00 28 1009.7
20260502213059 10 192 0.0 3.2 0.00 0.00 0.00 30 1009.5
20260502211555 10 157 0.0 0.0 0.00 0.00 0.00 26 1009.5
20260502210038 10 143 0.0 0.0 0.00 0.00 0.00 28 1009.3
20260502204533 10 144 0.0 8.0 0.00 0.00 0.00 27 1009.6
20260502203029 10 138 0.0 8.0 0.00 0.00 0.00 29 1009.6
20260502201528 10 213 0.0 4.8 0.00 0.00 0.00 27 1009.7
20260502200020 10 209 0.0 3.2 0.00 0.00 0.00 24 1010.0
20260502194516 10 148 0.0 4.8 0.00 0.00 0.00 23 1010.0
20260502193011 10 213 0.0 4.8 0.00 0.00 0.00 20 1010.2
20260502191507 10 119 1.6 8.0 0.00 0.00 0.00 14 1010.2
20260502190046 10 227 0.0 6.4 0.00 0.00 0.00 2 1010.5
20260502184541 10 209 0.0 4.8 0.00 0.00 0.00 100 1010.6
20260502183019 10 156 0.0 9.7 0.00 0.00 0.00 7 1010.8
20260502181515 10 225 1.6 8.0 0.00 0.00 0.00 6 1011.0
20260502163034 10 251 0.0 8.0 0.00 0.00 0.00 46 1011.1
20260502161530 10 223 0.0 6.4 0.00 0.00 0.00 54 1011.3
20260502151545 12 201 1.6 9.7 0.00 0.00 0.00 66 1011.3
20260502123010 9 186 0.0 0.0 0.00 0.00 0.00 21 1012.2
20260502121509 9 186 0.0 0.0 0.00 0.00 0.00 11 1012.1
20260502114544 8 186 0.0 0.0 0.00 0.00 0.00 100 1011.6
20260502113018 7 186 0.0 0.0 0.00 0.00 0.00 100 1011.7
20260502111513 6 186 0.0 0.0 0.00 0.00 0.00 100 1011.8
20260502104553 5 186 0.0 0.0 0.00 0.00 0.00 100 1011.5
20260502103048 5 186 0.0 0.0 0.00 0.00 0.00 100 1011.4
20260502101549 5 186 0.0 0.0 0.00 0.00 0.00 100 1011.2
20260502091527 4 186 0.0 0.0 0.00 0.00 0.00 2 1011.3
20260502071522 5 130 0.0 0.0 0.00 0.00 0.00 23 1011.3
20260502070018 5 130 0.0 0.0 0.00 0.00 0.00 29 1011.1
20260502064531 5 130 0.0 0.0 0.00 0.00 0.00 30 1011.2
20260502063058 5 130 0.0 0.0 0.00 0.00 0.00 32 1011.1
20260502061555 6 130 0.0 0.0 0.00 0.00 0.00 32 1011.4
20260502060050 6 130 0.0 0.0 0.00 0.00 0.00 31 1011.5
20260502054554 6 130 0.0 0.0 0.00 0.00 0.00 30 1011.4
20260502053040 6 130 0.0 0.0 0.00 0.00 0.00 33 1011.6
20260502051539 6 130 0.0 0.0 0.00 0.00 0.00 39 1011.8
20260502050032 6 130 0.0 0.0 0.00 0.00 0.00 44 1011.8
20260502044535 6 130 0.0 0.0 0.00 0.00 0.00 50 1011.7
20260502043024 6 130 0.0 0.0 0.00 0.00 0.00 53 1011.8
20260502041507 7 130 0.0 0.0 0.00 0.00 0.00 58 1011.8
20260502040004 7 130 0.0 0.0 0.00 0.00 0.00 60 1011.9
20260502034558 7 130 0.0 0.0 0.00 0.00 0.00 63 1011.8
20260502033054 7 130 0.0 0.0 0.00 0.00 0.00 65 1011.8
20260502031559 7 130 0.0 0.0 0.00 0.00 0.00 67 1011.9
20260502030046 8 130 0.0 0.0 0.00 0.00 0.00 69 1011.9
20260502024544 8 130 0.0 0.0 0.00 0.00 0.00 71 1011.8
20260502023039 8 130 0.0 0.0 0.00 0.00 0.00 71 1011.7
20260502021514 9 130 0.0 0.0 0.00 0.00 0.00 71 1011.6
20260502020011 9 235 0.0 0.0 0.00 0.00 0.00 71 1011.7
20260502014553 9 252 0.0 0.0 0.00 0.00 0.00 71 1011.6
20260502013045 10 249 0.0 0.0 0.00 0.00 0.00 69 1011.6
20260502011524 10 215 1.6 12.9 0.00 0.00 0.00 69 1011.4
20260502010020 10 202 0.0 4.8 0.00 0.00 0.00 67 1011.3
20260502004606 11 228 0.0 6.4 0.00 0.00 0.00 65 1010.9
20260502003125 11 195 0.0 4.8 0.00 0.00 0.00 62 1010.8